| time (UTC) | temp F | wind direction | speed MPH | gust MPH | rain 1hr in | rain 24hr in | rain mn in | humidity % | barometer mb |
| 20260502152254 | 14 | 62 | 0.0 | 1.0 | 0.00 | 0.00 | 0.00 | 27 | 1016.6 |
| 20260502151756 | 25 | 62 | 0.0 | 1.0 | 0.00 | 0.00 | 0.00 | 26 | 1016.6 |
| 20260502151256 | 24 | 273 | 0.0 | 0.0 | 0.00 | 0.00 | 0.00 | 31 | 1016.6 |
| 20260502150755 | 21 | 273 | 0.0 | 0.0 | 0.00 | 0.00 | 0.00 | 33 | 1016.3 |
| 20260502150254 | 18 | 273 | 0.0 | 0.0 | 0.00 | 0.00 | 0.00 | 35 | 1016.3 |
| 20260502130256 | 21 | 270 | 0.0 | 1.0 | 0.00 | 0.00 | 0.00 | 38 | 1015.3 |
| 20260502123756 | 27 | 288 | 0.0 | 3.0 | 0.00 | 0.00 | 0.00 | 37 | 1015.3 |
| 20260502123255 | 25 | 297 | 2.0 | 3.0 | 0.00 | 0.00 | 0.00 | 37 | 1015.3 |
| 20260502122755 | 28 | 302 | 1.0 | 3.0 | 0.00 | 0.00 | 0.00 | 38 | 1014.9 |
| 20260502122254 | 32 | 274 | 0.0 | 0.0 | 0.00 | 0.00 | 0.00 | 39 | 1014.9 |
| 20260502121754 | 30 | 274 | 0.0 | 0.0 | 0.00 | 0.00 | 0.00 | 39 | 1014.9 |
| 20260502121254 | 31 | 274 | 0.0 | 0.0 | 0.00 | 0.00 | 0.00 | 38 | 1014.9 |
| 20260502120754 | 32 | 274 | 0.0 | 0.0 | 0.00 | 0.00 | 0.00 | 38 | 1014.9 |
| 20260502120255 | 30 | 274 | 0.0 | 0.0 | 0.00 | 0.00 | 0.00 | 38 | 1014.9 |
| 20260502115755 | 30 | 274 | 0.0 | 0.0 | 0.00 | 0.00 | 0.00 | 39 | 1014.9 |
| 20260502115255 | 33 | 274 | 0.0 | 0.0 | 0.00 | 0.00 | 0.00 | 39 | 1014.9 |
| 20260502114755 | 33 | 274 | 0.0 | 0.0 | 0.00 | 0.00 | 0.00 | 39 | 1014.9 |
| 20260502114255 | 32 | 274 | 0.0 | 0.0 | 0.00 | 0.00 | 0.00 | 38 | 1014.9 |
| 20260502113755 | 36 | 274 | 0.0 | 4.0 | 0.00 | 0.00 | 0.00 | 37 | 1014.9 |
| 20260502113254 | 34 | 274 | 0.0 | 4.0 | 0.00 | 0.00 | 0.00 | 37 | 1014.9 |
| 20260502112754 | 38 | 259 | 0.0 | 1.0 | 0.00 | 0.00 | 0.00 | 37 | 1014.9 |
| 20260502112254 | 32 | 259 | 0.0 | 1.0 | 0.00 | 0.00 | 0.00 | 37 | 1014.9 |
| 20260502111754 | 38 | 302 | 0.0 | 0.0 | 0.00 | 0.00 | 0.00 | 36 | 1014.9 |
| 20260502111254 | 41 | 302 | 0.0 | 0.0 | 0.00 | 0.00 | 0.00 | 36 | 1014.9 |
| 20260502110756 | 44 | 302 | 0.0 | 0.0 | 0.00 | 0.00 | 0.00 | 36 | 1014.9 |
| 20260502110255 | 46 | 302 | 0.0 | 0.0 | 0.00 | 0.00 | 0.00 | 36 | 1014.9 |
| 20260502105755 | 46 | 302 | 0.0 | 0.0 | 0.00 | 0.00 | 0.00 | 35 | 1014.9 |
| 20260502105255 | 45 | 302 | 0.0 | 0.0 | 0.00 | 0.00 | 0.00 | 35 | 1014.9 |
| 20260502104755 | 44 | 302 | 0.0 | 0.0 | 0.00 | 0.00 | 0.00 | 35 | 1014.9 |
| 20260502104255 | 42 | 302 | 0.0 | 1.0 | 0.00 | 0.00 | 0.00 | 34 | 1014.9 |
| 20260502103754 | 38 | 302 | 0.0 | 1.0 | 0.00 | 0.00 | 0.00 | 33 | 1014.9 |
| 20260502103254 | 41 | 291 | 0.0 | 0.0 | 0.00 | 0.00 | 0.00 | 33 | 1014.9 |
| 20260502102756 | 46 | 291 | 0.0 | 0.0 | 0.00 | 0.00 | 0.00 | 32 | 1014.9 |
| 20260502102256 | 41 | 291 | 0.0 | 2.0 | 0.00 | 0.00 | 0.00 | 31 | 1014.9 |
| 20260502101755 | 38 | 291 | 0.0 | 4.0 | 0.00 | 0.00 | 0.00 | 30 | 1014.6 |
| 20260502101255 | 36 | 294 | 2.0 | 4.0 | 0.00 | 0.00 | 0.00 | 29 | 1014.9 |
| 20260502100755 | 38 | 270 | 2.0 | 6.0 | 0.00 | 0.00 | 0.00 | 29 | 1014.9 |
| 20260502100256 | 37 | 287 | 3.0 | 6.0 | 0.00 | 0.00 | 0.00 | 28 | 1014.9 |
| 20260502091256 | 29 | 294 | 6.0 | 6.0 | 0.00 | 0.00 | 0.00 | 26 | 1014.9 |
| 20260502090755 | 31 | 305 | 4.0 | 6.0 | 0.00 | 0.00 | 0.00 | 27 | 1014.9 |
| 20260502090255 | 29 | 298 | 0.0 | 4.0 | 0.00 | 0.00 | 0.00 | 27 | 1014.9 |
| 20260502071255 | 66 | 20 | 0.0 | 8.0 | 0.00 | 0.00 | 0.00 | 22 | 1014.9 |
| 20260502070755 | 67 | 294 | 0.0 | 5.0 | 0.00 | 0.00 | 0.00 | 22 | 1014.9 |
| 20260502070255 | 66 | 248 | 0.0 | 4.0 | 0.00 | 0.00 | 0.00 | 22 | 1014.9 |
| 20260502065755 | 66 | 248 | 0.0 | 9.0 | 0.00 | 0.00 | 0.00 | 22 | 1014.9 |
| 20260502065255 | 66 | 301 | 0.0 | 9.0 | 0.00 | 0.00 | 0.00 | 22 | 1014.9 |
| 20260502064754 | 66 | 316 | 5.0 | 8.0 | 0.00 | 0.00 | 0.00 | 23 | 1014.6 |
| 20260502064254 | 66 | 332 | 3.0 | 8.0 | 0.00 | 0.00 | 0.00 | 22 | 1014.6 |
| 20260502063754 | 67 | 326 | 0.0 | 1.0 | 0.00 | 0.00 | 0.00 | 22 | 1014.6 |
| 20260502063255 | 68 | 326 | 0.0 | 5.0 | 0.00 | 0.00 | 0.00 | 22 | 1014.6 |
| 20260502062755 | 68 | 323 | 2.0 | 5.0 | 0.00 | 0.00 | 0.00 | 21 | 1014.6 |
| 20260502062255 | 68 | 314 | 0.0 | 5.0 | 0.00 | 0.00 | 0.00 | 21 | 1014.6 |
| 20260502061756 | 68 | 314 | 2.0 | 5.0 | 0.00 | 0.00 | 0.00 | 21 | 1014.6 |
| 20260502061256 | 67 | 325 | 0.0 | 0.0 | 0.00 | 0.00 | 0.00 | 21 | 1014.6 |
| 20260502060756 | 68 | 325 | 0.0 | 0.0 | 0.00 | 0.00 | 0.00 | 21 | 1014.6 |
| 20260502060255 | 68 | 325 | 0.0 | 3.0 | 0.00 | 0.00 | 0.00 | 21 | 1014.3 |
| 20260502055755 | 68 | 325 | 0.0 | 5.0 | 0.00 | 0.00 | 0.00 | 21 | 1014.3 |
| 20260502055255 | 69 | 332 | 0.0 | 6.0 | 0.00 | 0.00 | 0.00 | 21 | 1014.3 |
| 20260502054755 | 69 | 10 | 0.0 | 6.0 | 0.00 | 0.00 | 0.00 | 20 | 1014.3 |
| 20260502054255 | 69 | 46 | 3.0 | 6.0 | 0.00 | 0.00 | 0.00 | 20 | 1014.3 |
| 20260502053754 | 69 | 315 | 1.0 | 6.0 | 0.00 | 0.00 | 0.00 | 21 | 1014.3 |
| 20260502053255 | 51 | 59 | 0.0 | 0.0 | 0.00 | 0.00 | 0.00 | 21 | 1014.3 |
| 20260502052755 | 53 | 59 | 0.0 | 5.0 | 0.00 | 0.00 | 0.00 | 21 | 1014.3 |
| 20260502052255 | 53 | 59 | 2.0 | 12.0 | 0.00 | 0.00 | 0.00 | 21 | 1014.3 |
| 20260502051754 | 53 | 37 | 1.0 | 12.0 | 0.00 | 0.00 | 0.00 | 20 | 1013.9 |
| 20260502051256 | 52 | 330 | 4.0 | 6.0 | 0.00 | 0.00 | 0.00 | 21 | 1013.9 |
| 20260502050755 | 52 | 69 | 0.0 | 6.0 | 0.00 | 0.00 | 0.00 | 21 | 1013.9 |
| 20260502050255 | 53 | 69 | 1.0 | 8.0 | 0.00 | 0.00 | 0.00 | 21 | 1013.9 |
| 20260502045755 | 52 | 343 | 6.0 | 8.0 | 0.00 | 0.00 | 0.00 | 22 | 1013.6 |
| 20260502045254 | 52 | 302 | 4.0 | 7.0 | 0.00 | 0.00 | 0.00 | 22 | 1013.6 |
| 20260502044754 | 53 | 280 | 0.0 | 8.0 | 0.00 | 0.00 | 0.00 | 23 | 1013.6 |
| 20260502044256 | 53 | 301 | 5.0 | 8.0 | 0.00 | 0.00 | 0.00 | 23 | 1013.2 |
| 20260502043755 | 53 | 297 | 3.0 | 7.0 | 0.00 | 0.00 | 0.00 | 23 | 1013.6 |
| 20260502043255 | 52 | 308 | 4.0 | 7.0 | 0.00 | 0.00 | 0.00 | 24 | 1013.2 |
| 20260502042755 | 52 | 284 | 5.0 | 7.0 | 0.00 | 0.00 | 0.00 | 24 | 1013.2 |
| 20260502042255 | 52 | 311 | 5.0 | 7.0 | 0.00 | 0.00 | 0.00 | 24 | 1013.2 |
| 20260502041754 | 53 | 307 | 4.0 | 5.0 | 0.00 | 0.00 | 0.00 | 23 | 1013.2 |
| 20260502041254 | 53 | 304 | 4.0 | 5.0 | 0.00 | 0.00 | 0.00 | 23 | 1012.9 |
| 20260502040754 | 54 | 293 | 3.0 | 5.0 | 0.00 | 0.00 | 0.00 | 23 | 1012.9 |
| 20260502040256 | 55 | 307 | 2.0 | 4.0 | 0.00 | 0.00 | 0.00 | 22 | 1012.9 |
| 20260502035756 | 55 | 31 | 0.0 | 4.0 | 0.00 | 0.00 | 0.00 | 21 | 1012.9 |
| 20260502035256 | 55 | 31 | 0.0 | 5.0 | 0.00 | 0.00 | 0.00 | 20 | 1012.9 |
| 20260502034756 | 55 | 23 | 2.0 | 5.0 | 0.00 | 0.00 | 0.00 | 19 | 1012.9 |
| 20260502034255 | 55 | 350 | 1.0 | 5.0 | 0.00 | 0.00 | 0.00 | 20 | 1012.6 |
| 20260502033755 | 54 | 20 | 0.0 | 2.0 | 0.00 | 0.00 | 0.00 | 19 | 1012.6 |
| 20260502033255 | 54 | 20 | 0.0 | 5.0 | 0.00 | 0.00 | 0.00 | 19 | 1012.6 |
| 20260502032755 | 54 | 45 | 2.0 | 8.0 | 0.00 | 0.00 | 0.00 | 19 | 1012.6 |
| 20260502032254 | 54 | 41 | 3.0 | 8.0 | 0.00 | 0.00 | 0.00 | 19 | 1012.6 |
| 20260502031756 | 48 | 53 | 4.0 | 7.0 | 0.00 | 0.00 | 0.00 | 19 | 1012.2 |
| 20260502031255 | 47 | 31 | 4.0 | 7.0 | 0.00 | 0.00 | 0.00 | 19 | 1012.2 |
| 20260502030755 | 48 | 46 | 0.0 | 3.0 | 0.00 | 0.00 | 0.00 | 19 | 1011.9 |
| 20260502030255 | 47 | 15 | 0.0 | 2.0 | 0.00 | 0.00 | 0.00 | 19 | 1011.9 |
| 20260502025754 | 47 | 15 | 0.0 | 6.0 | 0.00 | 0.00 | 0.00 | 19 | 1011.9 |
| 20260502025254 | 46 | 329 | 2.0 | 7.0 | 0.00 | 0.00 | 0.00 | 19 | 1011.9 |
| 20260502024754 | 51 | 332 | 5.0 | 8.0 | 0.00 | 0.00 | 0.00 | 19 | 1011.9 |
| 20260502024256 | 50 | 322 | 5.0 | 8.0 | 0.00 | 0.00 | 0.00 | 19 | 1011.6 |
| 20260502023755 | 49 | 328 | 5.0 | 7.0 | 0.00 | 0.00 | 0.00 | 19 | 1011.6 |
| 20260502023255 | 49 | 318 | 3.0 | 8.0 | 0.00 | 0.00 | 0.00 | 19 | 1011.6 |
| 20260502022755 | 49 | 311 | 4.0 | 9.0 | 0.00 | 0.00 | 0.00 | 19 | 1011.6 |
| 20260502022255 | 49 | 336 | 7.0 | 9.0 | 0.00 | 0.00 | 0.00 | 19 | 1011.6 |
| 20260502021756 | 51 | 359 | 5.0 | 11.0 | 0.00 | 0.00 | 0.00 | 18 | 1011.6 |
| 20260502021256 | 52 | 319 | 7.0 | 11.0 | 0.00 | 0.00 | 0.00 | 18 | 1011.6 |
| 20260502020756 | 51 | 318 | 5.0 | 10.0 | 0.00 | 0.00 | 0.00 | 18 | 1011.6 |
| 20260502020255 | 52 | 274 | 5.0 | 9.0 | 0.00 | 0.00 | 0.00 | 18 | 1011.6 |
| 20260502015755 | 52 | 46 | 0.0 | 9.0 | 0.00 | 0.00 | 0.00 | 18 | 1011.6 |
| 20260502015255 | 52 | 69 | 4.0 | 8.0 | 0.00 | 0.00 | 0.00 | 18 | 1011.2 |
| 20260502014755 | 53 | 13 | 1.0 | 9.0 | 0.00 | 0.00 | 0.00 | 18 | 1011.2 |
| 20260502014255 | 53 | 338 | 6.0 | 11.0 | 0.00 | 0.00 | 0.00 | 18 | 1011.2 |
| 20260502013754 | 53 | 308 | 4.0 | 11.0 | 0.00 | 0.00 | 0.00 | 18 | 1011.2 |
| 20260502013255 | 52 | 35 | 6.0 | 10.0 | 0.00 | 0.00 | 0.00 | 18 | 1011.2 |
| 20260502012755 | 54 | 326 | 6.0 | 11.0 | 0.00 | 0.00 | 0.00 | 18 | 1011.2 |
| 20260502012255 | 54 | 359 | 6.0 | 13.0 | 0.00 | 0.00 | 0.00 | 18 | 1011.2 |
| 20260502011755 | 54 | 17 | 6.0 | 13.0 | 0.00 | 0.00 | 0.00 | 18 | 1010.9 |
| 20260502011255 | 55 | 323 | 8.0 | 13.0 | 0.00 | 0.00 | 0.00 | 18 | 1010.9 |
| 20260502010755 | 55 | 326 | 6.0 | 11.0 | 0.00 | 0.00 | 0.00 | 18 | 1010.9 |
| 20260502010254 | 55 | 25 | 6.0 | 11.0 | 0.00 | 0.00 | 0.00 | 18 | 1010.9 |
| 20260502005754 | 56 | 8 | 2.0 | 15.0 | 0.00 | 0.00 | 0.00 | 18 | 1010.9 |
| 20260502005256 | 56 | 20 | 4.0 | 15.0 | 0.00 | 0.00 | 0.00 | 18 | 1010.9 |
| 20260502004756 | 57 | 319 | 7.0 | 14.0 | 0.00 | 0.00 | 0.00 | 18 | 1010.9 |
| 20260502004255 | 57 | 76 | 5.0 | 9.0 | 0.00 | 0.00 | 0.00 | 18 | 1010.9 |
| 20260502003755 | 57 | 10 | 0.0 | 13.0 | 0.00 | 0.00 | 0.00 | 18 | 1010.9 |
| 20260502003254 | 58 | 38 | 3.0 | 13.0 | 0.00 | 0.00 | 0.00 | 18 | 1011.2 |
| 20260502002754 | 57 | 314 | 5.0 | 11.0 | 0.00 | 0.00 | 0.00 | 18 | 1010.9 |
| 20260502002254 | 56 | 44 | 7.0 | 11.0 | 0.00 | 0.00 | 0.00 | 19 | 1011.2 |
| 20260502001756 | 57 | 335 | 0.0 | 7.0 | 0.00 | 0.00 | 0.00 | 19 | 1010.9 |
| 20260502001255 | 57 | 1 | 2.0 | 7.0 | 0.00 | 0.00 | 0.00 | 19 | 1011.2 |
| 20260502000755 | 58 | 34 | 1.0 | 8.0 | 0.00 | 0.00 | 0.00 | 20 | 1011.2 |
| 20260502000255 | 57 | 107 | 5.0 | 11.0 | 0.00 | 0.00 | 0.00 | 20 | 1011.2 |
| 20260501235754 | 56 | 111 | 5.0 | 11.0 | 0.00 | 0.00 | 0.00 | 20 | 1011.2 |
| 20260501235256 | 56 | 60 | 4.0 | 9.0 | 0.00 | 0.00 | 0.00 | 20 | 1011.2 |
| 20260501234755 | 56 | 91 | 6.0 | 10.0 | 0.00 | 0.00 | 0.00 | 20 | 1011.2 |
| 20260501234255 | 56 | 17 | 4.0 | 14.0 | 0.00 | 0.00 | 0.00 | 19 | 1011.6 |
| 20260501233755 | 56 | 65 | 7.0 | 14.0 | 0.00 | 0.00 | 0.00 | 20 | 1011.2 |
| 20260501233254 | 55 | 172 | 1.0 | 6.0 | 0.00 | 0.00 | 0.00 | 20 | 1011.2 |
| 20260501232756 | 52 | 238 | 2.0 | 11.0 | 0.00 | 0.00 | 0.00 | 20 | 1011.6 |
| 20260501232255 | 70 | 38 | 4.0 | 13.0 | 0.00 | 0.00 | 0.00 | 20 | 1011.6 |
| 20260501231755 | 70 | 48 | 8.0 | 13.0 | 0.00 | 0.00 | 0.00 | 20 | 1011.6 |
| 20260501231255 | 75 | 52 | 3.0 | 8.0 | 0.00 | 0.00 | 0.00 | 20 | 1011.6 |
| 20260501230754 | 65 | 124 | 3.0 | 13.0 | 0.00 | 0.00 | 0.00 | 20 | 1011.6 |
| 20260501230256 | 66 | 89 | 6.0 | 13.0 | 0.00 | 0.00 | 0.00 | 20 | 1011.6 |
| 20260501225755 | 72 | 91 | 7.0 | 13.0 | 0.00 | 0.00 | 0.00 | 20 | 1011.6 |
| 20260501225255 | 72 | 35 | 6.0 | 13.0 | 0.00 | 0.00 | 0.00 | 20 | 1011.6 |
| 20260501224755 | 72 | 90 | 5.0 | 14.0 | 0.00 | 0.00 | 0.00 | 21 | 1011.9 |
| 20260501224254 | 72 | 314 | 9.0 | 14.0 | 0.00 | 0.00 | 0.00 | 20 | 1011.9 |
| 20260501223754 | 72 | 93 | 2.0 | 11.0 | 0.00 | 0.00 | 0.00 | 20 | 1011.9 |
| 20260501223254 | 72 | 76 | 6.0 | 12.0 | 0.00 | 0.00 | 0.00 | 20 | 1011.9 |
| 20260501222756 | 72 | 83 | 8.0 | 19.0 | 0.00 | 0.00 | 0.00 | 20 | 1011.9 |
| 20260501222255 | 71 | 96 | 9.0 | 19.0 | 0.00 | 0.00 | 0.00 | 20 | 1011.9 |
| 20260501221755 | 68 | 86 | 7.0 | 13.0 | 0.00 | 0.00 | 0.00 | 20 | 1011.9 |
| 20260501221255 | 70 | 260 | 0.0 | 9.0 | 0.00 | 0.00 | 0.00 | 21 | 1011.9 |
| 20260501220754 | 71 | 10 | 6.0 | 9.0 | 0.00 | 0.00 | 0.00 | 21 | 1012.2 |
| 20260501220254 | 70 | 152 | 0.0 | 10.0 | 0.00 | 0.00 | 0.00 | 21 | 1012.2 |
| 20260501215755 | 73 | 298 | 5.0 | 10.0 | 0.00 | 0.00 | 0.00 | 21 | 1012.2 |
| 20260501215255 | 15 | 128 | 2.0 | 9.0 | 0.00 | 0.00 | 0.00 | 22 | 1012.2 |
| 20260501214755 | 34 | 32 | 5.0 | 9.0 | 0.00 | 0.00 | 0.00 | 21 | 1012.6 |
| 20260501214254 | 42 | 121 | 2.0 | 7.0 | 0.00 | 0.00 | 0.00 | 22 | 1012.6 |
| 20260501213756 | 43 | 176 | 2.0 | 6.0 | 0.00 | 0.00 | 0.00 | 22 | 1012.6 |
| 20260501213255 | 43 | 87 | 0.0 | 9.0 | 0.00 | 0.00 | 0.00 | 22 | 1012.6 |
| 20260501212755 | 17 | 24 | 3.0 | 11.0 | 0.00 | 0.00 | 0.00 | 22 | 1012.6 |
| 20260501212255 | 17 | 89 | 3.0 | 11.0 | 0.00 | 0.00 | 0.00 | 23 | 1012.6 |
| 20260501211755 | 24 | 110 | 4.0 | 9.0 | 0.00 | 0.00 | 0.00 | 23 | 1012.9 |
| 20260501211254 | 43 | 70 | 0.0 | 10.0 | 0.00 | 0.00 | 0.00 | 23 | 1012.9 |
| 20260501210754 | 75 | 111 | 3.0 | 10.0 | 0.00 | 0.00 | 0.00 | 23 | 1012.9 |
| 20260501210254 | 75 | 51 | 6.0 | 13.0 | 0.00 | 0.00 | 0.00 | 23 | 1012.9 |
| 20260501205754 | 75 | 72 | 7.0 | 14.0 | 0.00 | 0.00 | 0.00 | 23 | 1012.9 |
| 20260501205256 | 41 | 139 | 6.0 | 14.0 | 0.00 | 0.00 | 0.00 | 23 | 1012.9 |
| 20260501204756 | 41 | 141 | 8.0 | 14.0 | 0.00 | 0.00 | 0.00 | 23 | 1012.9 |
| 20260501204255 | 41 | 141 | 5.0 | 10.0 | 0.00 | 0.00 | 0.00 | 23 | 1012.9 |
| 20260501203755 | 55 | 260 | 5.0 | 9.0 | 0.00 | 0.00 | 0.00 | 23 | 1013.2 |
| 20260501203255 | 52 | 290 | 2.0 | 12.0 | 0.00 | 0.00 | 0.00 | 24 | 1013.2 |
| 20260501202754 | 52 | 294 | 8.0 | 12.0 | 0.00 | 0.00 | 0.00 | 23 | 1013.2 |
| 20260501202254 | 54 | 115 | 2.0 | 10.0 | 0.00 | 0.00 | 0.00 | 24 | 1013.6 |
| 20260501201756 | 54 | 60 | 5.0 | 10.0 | 0.00 | 0.00 | 0.00 | 23 | 1013.6 |
| 20260501201255 | 54 | 42 | 6.0 | 11.0 | 0.00 | 0.00 | 0.00 | 23 | 1013.6 |
| 20260501200755 | 53 | 27 | 8.0 | 11.0 | 0.00 | 0.00 | 0.00 | 23 | 1013.6 |
| 20260501200255 | 23 | 10 | 2.0 | 10.0 | 0.00 | 0.00 | 0.00 | 23 | 1013.6 |
| 20260501195754 | 26 | 113 | 5.0 | 8.0 | 0.00 | 0.00 | 0.00 | 23 | 1013.6 |
| 20260501195254 | 54 | 110 | 3.0 | 8.0 | 0.00 | 0.00 | 0.00 | 24 | 1013.6 |
| 20260501194756 | 56 | 155 | 2.0 | 8.0 | 0.00 | 0.00 | 0.00 | 24 | 1013.9 |
| 20260501194255 | 51 | 73 | 4.0 | 12.0 | 0.00 | 0.00 | 0.00 | 24 | 1013.9 |
| 20260501193755 | 44 | 183 | 6.0 | 12.0 | 0.00 | 0.00 | 0.00 | 24 | 1013.9 |
| 20260501193254 | 44 | 162 | 2.0 | 10.0 | 0.00 | 0.00 | 0.00 | 25 | 1013.9 |
| 20260501192754 | 44 | 125 | 5.0 | 10.0 | 0.00 | 0.00 | 0.00 | 26 | 1014.3 |
| 20260501192256 | 45 | 163 | 3.0 | 6.0 | 0.00 | 0.00 | 0.00 | 25 | 1014.3 |
| 20260501191755 | 46 | 139 | 3.0 | 5.0 | 0.00 | 0.00 | 0.00 | 26 | 1014.6 |
| 20260501191255 | 46 | 107 | 3.0 | 6.0 | 0.00 | 0.00 | 0.00 | 26 | 1014.6 |
| 20260501190755 | 46 | 4 | 0.0 | 6.0 | 0.00 | 0.00 | 0.00 | 25 | 1014.6 |
| 20260501190255 | 46 | 248 | 0.0 | 3.0 | 0.00 | 0.00 | 0.00 | 26 | 1014.6 |
| 20260501185755 | 47 | 255 | 2.0 | 3.0 | 0.00 | 0.00 | 0.00 | 26 | 1014.6 |
| 20260501185254 | 47 | 86 | 0.0 | 6.0 | 0.00 | 0.00 | 0.00 | 25 | 1014.6 |
| 20260501184754 | 47 | 58 | 1.0 | 8.0 | 0.00 | 0.00 | 0.00 | 25 | 1014.6 |
| 20260501184256 | 47 | 143 | 5.0 | 8.0 | 0.00 | 0.00 | 0.00 | 24 | 1014.9 |
| 20260501183756 | 47 | 86 | 4.0 | 6.0 | 0.00 | 0.00 | 0.00 | 25 | 1014.9 |
| 20260501183255 | 47 | 6 | 1.0 | 12.0 | 0.00 | 0.00 | 0.00 | 25 | 1014.9 |
| 20260501182755 | 47 | 23 | 5.0 | 12.0 | 0.00 | 0.00 | 0.00 | 24 | 1014.9 |
| 20260501182255 | 48 | 204 | 0.0 | 6.0 | 0.00 | 0.00 | 0.00 | 24 | 1014.9 |
| 20260501181755 | 45 | 174 | 1.0 | 8.0 | 0.00 | 0.00 | 0.00 | 24 | 1014.9 |
| 20260501181254 | 48 | 143 | 3.0 | 10.0 | 0.00 | 0.00 | 0.00 | 25 | 1014.9 |
| 20260501180754 | 44 | 132 | 4.0 | 12.0 | 0.00 | 0.00 | 0.00 | 25 | 1014.9 |
| 20260501180254 | 46 | 108 | 5.0 | 12.0 | 0.00 | 0.00 | 0.00 | 26 | 1015.3 |
| 20260501175754 | 44 | 60 | 6.0 | 10.0 | 0.00 | 0.00 | 0.00 | 25 | 1015.3 |
| 20260501175254 | 43 | 114 | 0.0 | 9.0 | 0.00 | 0.00 | 0.00 | 26 | 1015.3 |
| 20260501174756 | 44 | 90 | 5.0 | 9.0 | 0.00 | 0.00 | 0.00 | 26 | 1015.3 |
| 20260501174256 | 44 | 52 | 2.0 | 10.0 | 0.00 | 0.00 | 0.00 | 26 | 1015.3 |
| 20260501173756 | 44 | 253 | 4.0 | 10.0 | 0.00 | 0.00 | 0.00 | 27 | 1015.3 |
| 20260501173255 | 44 | 87 | 5.0 | 8.0 | 0.00 | 0.00 | 0.00 | 27 | 1015.3 |
| 20260501172755 | 44 | 41 | 5.0 | 8.0 | 0.00 | 0.00 | 0.00 | 27 | 1015.3 |
| 20260501172255 | 44 | 25 | 2.0 | 10.0 | 0.00 | 0.00 | 0.00 | 27 | 1015.3 |
| 20260501171755 | 44 | 66 | 2.0 | 14.0 | 0.00 | 0.00 | 0.00 | 27 | 1015.3 |
| 20260501171255 | 44 | 66 | 8.0 | 14.0 | 0.00 | 0.00 | 0.00 | 26 | 1015.3 |
| 20260501170755 | 44 | 51 | 2.0 | 6.0 | 0.00 | 0.00 | 0.00 | 28 | 1015.3 |
| 20260501170255 | 45 | 53 | 3.0 | 6.0 | 0.00 | 0.00 | 0.00 | 27 | 1015.3 |
| 20260501165755 | 44 | 321 | 1.0 | 8.0 | 0.00 | 0.00 | 0.00 | 28 | 1015.3 |
| 20260501165255 | 44 | 148 | 3.0 | 9.0 | 0.00 | 0.00 | 0.00 | 27 | 1015.3 |
| 20260501164754 | 45 | 65 | 3.0 | 10.0 | 0.00 | 0.00 | 0.00 | 27 | 1015.3 |
| 20260501164254 | 45 | 65 | 6.0 | 10.0 | 0.00 | 0.00 | 0.00 | 28 | 1014.9 |
| 20260501163754 | 45 | 41 | 4.0 | 8.0 | 0.00 | 0.00 | 0.00 | 28 | 1015.3 |
| 20260501163255 | 45 | 248 | 0.0 | 4.0 | 0.00 | 0.00 | 0.00 | 29 | 1014.9 |
| 20260501162755 | 45 | 248 | 0.0 | 10.0 | 0.00 | 0.00 | 0.00 | 28 | 1014.9 |
| 20260501162255 | 45 | 63 | 2.0 | 11.0 | 0.00 | 0.00 | 0.00 | 29 | 1014.9 |
| 20260501161754 | 45 | 20 | 6.0 | 11.0 | 0.00 | 0.00 | 0.00 | 30 | 1014.9 |
| 20260501161254 | 46 | 345 | 4.0 | 10.0 | 0.00 | 0.00 | 0.00 | 30 | 1014.9 |
| 20260501160754 | 44 | 336 | 3.0 | 11.0 | 0.00 | 0.00 | 0.00 | 30 | 1014.9 |
| 20260501160256 | 44 | 329 | 9.0 | 13.0 | 0.00 | 0.00 | 0.00 | 31 | 1014.9 |
| 20260501155755 | 42 | 332 | 6.0 | 13.0 | 0.00 | 0.00 | 0.00 | 31 | 1014.9 |
| 20260501155255 | 42 | 338 | 6.0 | 13.0 | 0.00 | 0.00 | 0.00 | 31 | 1014.9 |
| 20260501154755 | 43 | 315 | 8.0 | 14.0 | 0.00 | 0.00 | 0.00 | 31 | 1014.9 |
| 20260501154255 | 44 | 325 | 8.0 | 14.0 | 0.00 | 0.00 | 0.00 | 32 | 1014.9 |